This is the latest recevied weather packets stored in our database for station/object W0AVQ. If no packets are shown the sender has not sent any weather packets the latest 10 day(s).
| Time | Temp. | Humidity | Pressure | Rain* | Wind** | Luminosity | Snow |
|---|---|---|---|---|---|---|---|
| 1778095880 | 16.11° C | 63% | 1017.4 hPa | 0 mm | - | 252 W/m² | - |
| 1778095577 | 16.11° C | 63% | 1017.6 hPa | 0 mm | - | 246 W/m² | - |
| 1778095273 | 16.11° C | 62% | 1017.6 hPa | 0 mm | - | 237 W/m² | - |
| 1778094970 | 15.56° C | 65% | 1017.4 hPa | 0 mm | - | 221 W/m² | - |
| 1778094666 | 15.56° C | 62% | 1017.5 hPa | 0 mm | - | 232 W/m² | - |
| 1778094364 | 15.56° C | 61% | 1017.6 hPa | 0 mm | - | 211 W/m² | - |
| 1778094060 | 16.11° C | 61% | 1017.2 hPa | 0 mm | - | 219 W/m² | - |
| 1778093757 | 16.11° C | 60% | 1017.2 hPa | 0 mm | - | 206 W/m² | - |
| 1778093453 | 16.11° C | 64% | 1017.1 hPa | 0 mm | - | 203 W/m² | - |
| 1778093151 | 15.56° C | 64% | 1016.8 hPa | 0 mm | - | 189 W/m² | - |
| 1778092848 | 15.56° C | 64% | 1016.9 hPa | 0 mm | - | 174 W/m² | - |
| 1778092544 | 15° C | 63% | 1017.1 hPa | 0 mm | - | 160 W/m² | - |
| 1778092241 | 16.11° C | 65% | 1017.5 hPa | 0 mm | - | 155 W/m² | - |
| 1778091938 | 15.56° C | 65% | 1017.6 hPa | 0 mm | - | 247 W/m² | - |
| 1778091635 | 15.56° C | 61% | 1017.4 hPa | 0 mm | - | 256 W/m² | - |
| 1778091333 | 16.11° C | 65% | 1017.3 hPa | 0 mm | - | 201 W/m² | - |
| 1778091030 | 15.56° C | 63% | 1017.3 hPa | 0 mm | - | 254 W/m² | - |
| 1778090726 | 15.56° C | 67% | 1017.4 hPa | 0 mm | - | 242 W/m² | - |
| 1778090423 | 15.56° C | 67% | 1017.5 hPa | 0 mm | - | 222 W/m² | - |
| 1778090120 | 15° C | 68% | 1017.7 hPa | 0 mm | - | 196 W/m² | - |
| 1778089816 | 14.44° C | 67% | 1017.6 hPa | 0 mm | - | 216 W/m² | - |
| 1778089515 | 14.44° C | 68% | 1017.7 hPa | 0 mm | - | 228 W/m² | - |
| 1778089210 | 14.44° C | 68% | 1017.4 hPa | 0 mm | - | 218 W/m² | - |
| 1778088908 | 15° C | 68% | 1017.4 hPa | 0 mm | - | 260 W/m² | - |
| 1778088605 | 14.44° C | 65% | 1018 hPa | 0 mm | - | 246 W/m² | - |
* Rain latest hour (hover to see other rain measurements)
** Current wind speed in m/s (hover to see current wind gust speed)